Visibility
15.0 13.3 6.1 15.0 15.0 15.0 15.0 15.0 15.0 15.0 15.0 15.0 15.0 15.0 15.0 15.0 15.0 15.0 15.0 15.0 14.2 15.0 15.0 15.0 15.0 15.0 15.0 15.0 15.0 15.0 12.6 0.1 0.1 0.1 0.1 0.1 0.2 0.6 2.4 13.5 15.0 15.0 15.0 15.0
15.0 15.0 12.3 15.0 15.0 15.0 15.0 15.0 15.0 15.0 15.0 15.0 15.0 15.0 15.0 15.0 15.0 15.0 15.0 15.0 15.0 15.0 15.0 15.0 15.0 15.0 15.0 15.0 15.0 15.0 15.0 1.5 0.1 0.1 0.1 0.1 0.3 0.3 5.5 12.1 15.0 15.0 15.0 15.0
15.0 15.0 15.0 15.0 15.0 15.0 15.0 15.0 15.0 15.0 15.0 15.0 15.0 15.0 15.0 15.0 15.0 15.0 15.0 15.0 15.0 15.0 15.0 15.0 15.0 15.0 15.0 15.0 15.0 15.0 15.0 15.0 7.0 0.4 0.7 0.1 0.1 3.0 1.3 1.4 9.5 10.3 13.8 3.5
6.8 15.0 14.5 15.0 15.0 15.0 15.0 15.0 15.0 15.0 15.0 15.0 15.0 15.0 15.0 15.0 15.0 15.0 15.0 15.0 15.0 15.0 15.0 15.0 15.0 15.0 15.0 15.0 15.0 15.0 15.0 15.0 15.0 15.0 5.3 1.5 0.1 0.1 0.6 0.4 1.9 6.0 5.9 4.5
0.2 5.8 15.0 15.0 15.0 15.0 15.0 9.2 15.0 15.0 15.0 15.0 15.0 15.0 15.0 15.0 15.0 15.0 15.0 15.0 15.0 15.0 15.0 15.0 15.0 15.0 15.0 15.0 15.0 15.0 15.0 15.0 15.0 15.0 13.7 6.3 1.7 0.1 0.1 0.4 1.2 0.8 2.2 5.9
0.1 0.1 1.6 15.0 15.0 15.0 15.0 13.7 15.0 15.0 15.0 15.0 15.0 15.0 15.0 15.0 15.0 15.0 15.0 15.0 15.0 15.0 15.0 15.0 15.0 15.0 15.0 15.0 15.0 15.0 15.0 15.0 15.0 15.0 15.0 9.4 6.5 4.3 0.3 0.1 0.1 0.7 2.8 3.0
1.7 0.1 9.5 15.0 15.0 15.0 13.5 2.5 15.0 15.0 15.0 15.0 15.0 15.0 15.0 15.0 15.0 15.0 15.0 15.0 15.0 15.0 15.0 15.0 15.0 15.0 15.0 15.0 15.0 15.0 15.0 15.0 15.0 15.0 15.0 15.0 14.7 15.0 7.6 12.5 10.6 5.7 0.7 1.5
0.6 0.1 6.4 15.0 15.0 15.0 15.0 15.0 15.0 15.0 15.0 15.0 15.0 15.0 15.0 15.0 15.0 15.0 15.0 15.0 15.0 15.0 15.0 15.0 15.0 15.0 15.0 15.0 15.0 15.0 15.0 15.0 15.0 15.0 15.0 15.0 14.4 14.8 15.0 8.0 15.0 15.0 14.2 1.5
0.8 14.3 15.0 3.6 9.9 15.0 15.0 15.0 8.0 7.3 15.0 15.0 15.0 15.0 15.0 15.0 15.0 15.0 15.0 15.0 15.0 15.0 15.0 15.0 15.0 15.0 15.0 15.0 15.0 15.0 15.0 15.0 15.0 15.0 15.0 15.0 15.0 9.8 11.3 8.5 9.7 2.5 15.0 14.9
2.6 15.0 15.0 15.0 12.9 13.8 15.0 15.0 13.8 13.8 15.0 15.0 15.0 15.0 15.0 15.0 15.0 15.0 15.0 15.0 15.0 15.0 15.0 15.0 15.0 15.0 15.0 15.0 15.0 15.0 15.0 15.0 15.0 15.0 15.0 15.0 15.0 15.0 15.0 2.9 6.0 4.1 2.0 11.1
15.0 15.0 15.0 15.0 15.0 12.0 12.8 15.0 1.7 9.3 15.0 15.0 15.0 15.0 15.0 15.0 15.0 15.0 15.0 15.0 15.0 15.0 15.0 15.0 15.0 15.0 15.0 15.0 15.0 15.0 15.0 15.0 15.0 15.0 15.0 15.0 15.0 15.0 15.0 8.4 6.7 0.3 0.2 0.9
15.0 15.0 13.8 14.9 15.0 9.0 0.3 0.2 0.1 4.7 3.3 15.0 15.0 15.0 15.0 15.0 15.0 15.0 15.0 15.0 15.0 15.0 15.0 15.0 15.0 15.0 15.0 15.0 15.0 15.0 15.0 15.0 15.0 15.0 15.0 15.0 15.0 15.0 15.0 15.0 15.0 15.0 12.7 1.7
15.0 12.5 15.0 15.0 1.1 0.1 0.1 0.1 0.1 0.1 0.7 15.0 15.0 15.0 15.0 15.0 15.0 11.0 15.0 15.0 15.0 15.0 15.0 15.0 15.0 15.0 15.0 8.8 15.0 15.0 15.0 15.0 15.0 14.6 15.0 15.0 15.0 15.0 15.0 15.0 15.0 15.0 15.0 15.0
0.3 0.1 0.3 0.4 0.1 0.1 0.1 0.1 0.1 2.7 13.9 14.1 3.3 15.0 13.3 15.0 15.0 15.0 15.0 15.0 15.0 15.0 15.0 15.0 6.5 15.0 15.0 15.0 15.0 14.4 7.8 15.0 12.5 15.0 15.0 15.0 15.0 15.0 15.0 15.0 15.0 15.0 15.0 15.0
0.1 0.1 0.1 0.2 0.1 0.1 0.1 0.1 0.3 0.4 10.9 15.0 8.4 1.0 1.0 15.0 14.8 14.1 15.0 15.0 15.0 11.7 6.6 11.3 15.0 15.0 15.0 13.2 14.4 15.0 7.9 0.5 6.1 4.1 4.5 9.9 15.0 15.0 15.0 15.0 15.0 15.0 15.0 15.0
0.1 0.1 0.1 0.8 8.3 4.3 7.7 15.0 0.9 6.5 14.3 15.0 9.2 0.5 1.9 9.3 0.3 5.9 15.0 15.0 14.4 14.2 15.0 15.0 15.0 15.0 15.0 15.0 15.0 14.1 4.3 15.0 10.5 4.1 4.1 4.5 9.7 15.0 7.3 6.2 5.3 15.0 15.0 15.0
0.1 0.2 0.1 0.1 0.1 0.6 0.2 0.1 1.5 8.0 3.1 8.7 11.5 0.5 1.9 0.3 0.4 12.3 15.0 15.0 15.0 15.0 15.0 15.0 15.0 15.0 15.0 15.0 15.0 15.0 4.1 4.3 8.2 0.7 4.0 4.1 7.2 15.0 4.2 4.1 4.1 4.1 7.0 15.0
13.5 15.0 15.0 7.4 4.6 5.1 7.3 11.6 0.2 0.1 4.8 15.0 14.3 0.7 0.3 0.4 0.2 11.9 15.0 15.0 15.0 15.0 15.0 15.0 14.8 14.7 15.0 15.0 15.0 6.0 6.7 4.1 4.1 1.9 1.0 1.7 4.0 7.5 8.4 10.8 4.1 4.1 8.8 15.0
15.0 15.0 15.0 15.0 15.0 14.7 13.1 7.3 2.7 0.3 15.0 6.9 2.2 0.4 0.2 0.2 3.5 15.0 15.0 15.0 15.0 15.0 15.0 15.0 9.2 6.0 7.3 6.1 3.4 4.1 4.1 4.1 4.1 4.1 4.1 3.6 0.5 2.0 4.0 4.8 4.1 4.1 4.7 15.0
15.0 15.0 15.0 15.0 15.0 15.0 15.0 15.0 1.7 0.2 2.7 3.3 1.1 0.4 0.3 1.3 15.0 15.0 15.0 15.0 15.0 15.0 15.0 13.8 7.7 4.1 4.7 4.5 0.8 9.5 4.1 4.1 4.1 4.1 2.7 2.8 2.4 2.3 3.9 6.0 11.8 4.1 6.0 14.3
15.0 15.0 15.0 15.0 15.0 15.0 1.4 0.5 0.7 2.1 2.3 2.3 0.2 0.3 2.1 15.0 15.0 15.0 15.0 15.0 15.0 15.0 15.0 10.5 4.7 4.1 15.0 5.6 3.9 3.3 2.3 2.2 3.9 4.1 2.4 0.8 0.6 0.4 1.9 4.0 3.6 3.7 4.1 4.1
15.0 15.0 15.0 15.0 9.8 1.7 0.5 1.4 4.2 1.7 2.0 0.3 0.6 15.0 15.0 15.0 15.0 14.2 15.0 15.0 8.7 12.6 15.0 15.0 15.0 13.8 0.6 2.9 2.2 3.9 2.2 1.4 1.3 2.0 2.7 0.9 0.7 0.8 1.0 1.1 1.8 3.4 4.1 4.0
15.0 13.2 4.8 2.8 1.0 0.6 1.4 3.8 0.9 0.3 0.2 5.0 15.0 15.0 15.0 15.0 15.0 15.0 11.9 3.5 1.4 15.0 15.0 13.9 2.1 1.6 2.4 2.2 2.6 2.1 2.3 2.5 2.1 1.5 1.2 1.5 1.6 2.1 2.6 3.8 3.5 2.7 3.0 4.0
1.3 13.4 2.2 2.6 2.3 4.2 2.9 0.6 0.2 0.4 12.8 15.0 15.0 15.0 15.0 15.0 15.0 15.0 15.0 15.0 15.0 15.0 15.0 5.8 5.3 15.0 15.0 15.0 14.4 14.0 14.0 11.2 14.1 7.4 4.1 11.7 4.1 4.1 4.1 4.1 4.1 4.1 4.1 7.2
0.2 0.3 0.2 1.3 3.3 1.2 0.3 0.2 0.1 0.8 15.0 15.0 15.0 15.0 15.0 15.0 15.0 15.0 6.0 5.0 7.6 15.0 0.7 1.3 7.6 15.0 11.5 15.0 13.8 13.2 4.5 5.2 6.1 3.5 4.8 4.2 4.5 4.1 9.9 8.4 8.6 15.0 14.0 13.9
0.5 0.7 1.8 2.5 0.7 0.3 0.2 0.1 0.2 1.3 15.0 15.0 15.0 15.0 15.0 15.0 15.0 8.1 15.0 15.0 15.0 15.0 13.6 14.2 9.8 14.0 4.6 3.9 15.0 15.0 13.0 15.0 11.2 8.5 13.2 11.0 11.3 12.3 15.0 15.0 15.0 15.0 15.0 15.0
0.2 0.2 0.2 0.3 0.2 0.2 0.1 0.2 0.4 7.4 15.0 15.0 10.3 13.0 15.0 15.0 13.5 15.0 15.0 15.0 15.0 15.0 15.0 14.8 11.9 5.4 4.2 15.0 15.0 14.9 15.0 14.8 8.8 3.6 3.5 12.2 15.0 15.0 11.4 4.7 4.1 6.3 8.8 14.6